Location: LDNL
(36.4545°S, 141.6685°E)
Time: 04:37:39
(UTC+10:00)

Courier 1B Rocket - Pass Details

Date: 27 May 2024
Orbit: 920 x 1201 km, 28.3° (Epoch: 14 June)

Event Time Altitude Azimuth Distance (km) Brightness Sun altitude
Exits shadow 05:07:01 39° 329° (NNW) 1,696 6.0 -28.9°
Maximum altitude 05:08:11 42° 350° (N) 1,644 6.1 -28.6°
Drops below altitude 10° 05:15:28 10° 58° (ENE) 3,136 8.5 -27.2°
Sets 05:18:29 0° 64° (ENE) 4,093 9.4 -26.6°
